Change the Weather History Date:

Friday, December 23, 2011

  Actual Average Record
Temperature  
Mean Temperature 26 °F -  
Max Temperature 29 °F 43 °F 57 °F (1996)
Min Temperature 22 °F 13 °F 1 °F (2013)
Degree Days  
Heating Degree Days 40    
Moisture  
Dew Point 22 °F    
Average Humidity 84    
Maximum Humidity 96    
Minimum Humidity 66    
Precipitation  
Precipitation 0.00 in - - ()
Sea Level Pressure  
Sea Level Pressure 30.37 in    
Wind  
Wind Speed 11 mph (West)    
Max Wind Speed 18 mph    
Max Gust Speed -    
Visibility 10 miles    
Events      
Averages and records for this station are not official NWS values.
T = Trace of Precipitation, MM = Missing Value Source: NWS Daily Summary

Daily Weather History Graph

Daily Weather History Graph

Search for Another Location

Airport or City:

Trip Planner

Search our weather history database for the weather conditions in past years. The results will help you decide how hot, cold, wet, or windy it might be!

Date:

Astronomy

Dec. 23, 2011 Rise Set
Actual Time 7:16 AM CST 4:33 PM CST
Civil Twilight 6:45 AM CST 5:03 PM CST
Nautical Twilight 6:11 AM CST 5:38 PM CST
Astronomical Twilight 5:37 AM CST 6:11 PM CST
Moon 6:05 AM CST (12/23) 3:41 PM CST (12/23)
Length of Visible Light 10h 18m
Length of Day
9h 16m
Waning Crescent, 1% of the Moon is Illuminated
Dec 23
Waning Crescent
Dec 24
New
Jan 1
First Quarter
Jan 9
Full
Jan 16
Last Quarter

Hourly Weather History & Observations

Time (CST) Temp. Windchill Dew Point Humidity Pressure Visibility Wind Dir Wind Speed Gust Speed Precip Events Conditions
2:56 AM 29.1 °F 19.4 °F 25.2 °F 85% 30.36 in 10.0 mi North 11.5 mph - N/A   Mostly Cloudy
3:36 AM 28.4 °F 18.0 °F 24.8 °F 86% 30.31 in 10.0 mi North 12.7 mph - N/A   Overcast
3:56 AM 27.1 °F 16.9 °F 24.1 °F 88% 30.36 in 10.0 mi NNW 11.5 mph - N/A   Overcast
4:56 AM 26.1 °F 15.6 °F 22.1 °F 85% 30.37 in 10.0 mi NNW 11.5 mph - N/A   Clear
5:56 AM 25.2 °F 15.1 °F 21.0 °F 84% 30.39 in 10.0 mi NNW 10.4 mph - N/A   Mostly Cloudy
7:56 AM 22.1 °F 14.7 °F 20.1 °F 92% 30.43 in 10.0 mi NNW 5.8 mph - N/A   Scattered Clouds
8:56 AM 25.2 °F 19.5 °F 19.0 °F 78% 30.43 in 10.0 mi NNW 4.6 mph - N/A   Clear
9:56 AM 27.1 °F - 19.0 °F 72% 30.44 in 10.0 mi Calm Calm - N/A   Clear
10:56 AM 29.1 °F 22.1 °F 19.0 °F 66% 30.43 in 10.0 mi WSW 6.9 mph - N/A   Partly Cloudy
11:56 AM 29.1 °F 18.9 °F 21.0 °F 72% 30.38 in 10.0 mi SW 12.7 mph - N/A   Partly Cloudy
12:56 PM 29.1 °F 18.9 °F 21.0 °F 72% 30.36 in 10.0 mi WSW 12.7 mph - N/A   Mostly Cloudy
1:56 PM 27.1 °F 16.4 °F 22.1 °F 81% 30.35 in 10.0 mi WSW 12.7 mph - N/A   Overcast
2:56 PM 27.1 °F 15.4 °F 21.0 °F 78% 30.34 in 10.0 mi WSW 15.0 mph - N/A   Overcast
3:56 PM 27.1 °F 14.1 °F 21.0 °F 78% 30.34 in 10.0 mi SW 18.4 mph - N/A   Overcast
5:56 PM 26.1 °F 14.0 °F 22.1 °F 85% 30.33 in 10.0 mi SW 15.0 mph - N/A   Overcast
6:56 PM 27.1 °F 15.9 °F 24.1 °F 88% 30.34 in 10.0 mi SW 13.8 mph - N/A   Overcast
7:56 PM 27.1 °F 16.4 °F 24.1 °F 88% 30.36 in 10.0 mi SW 12.7 mph - N/A   Mostly Cloudy
8:56 PM 26.1 °F 16.8 °F 25.2 °F 96% 30.36 in 10.0 mi SW 9.2 mph - N/A   Clear
9:56 PM 25.2 °F 15.1 °F 24.1 °F 96% 30.36 in 10.0 mi SW 10.4 mph - N/A   Clear
10:56 PM 25.2 °F 15.1 °F 24.1 °F 96% 30.36 in 10.0 mi SW 10.4 mph - N/A   Clear
11:56 PM 25.2 °F 14.4 °F 24.1 °F 96% 30.36 in 10.0 mi SW 11.5 mph - N/A   Clear